FW4741 Weather Reports


Display with metric or nautical units.
time (UTC)temp
F
wind
direction
speed
MPH
gust
MPH
rain 1hr
in
rain 24hr
in
rain mn
in
humidity
%
barometer
mb
20260507130603 60 77 2.0 6.0 0.00 0.00 0.00 66 1022.6
20260507130103 60 77 2.0 6.0 0.00 0.00 0.00 67 1022.6
20260507125604 60 77 2.0 6.0 0.00 0.00 0.00 66 1022.6
20260507125104 60 77 2.0 6.0 0.00 0.00 0.00 66 1022.5
20260507124604 60 77 2.0 6.0 0.00 0.00 0.00 66 1022.5
20260507124104 60 77 2.0 6.0 0.00 0.00 0.00 67 1022.6
20260507123104 60 77 2.0 6.0 0.00 0.00 0.00 67 1022.5
20260507122604 60 77 2.0 6.0 0.00 0.00 0.00 66 1022.5
20260507122104 60 77 2.0 6.0 0.00 0.00 0.00 66 1022.4
20260507121604 60 77 2.0 6.0 0.00 0.00 0.00 66 1022.4
20260507121104 60 77 2.0 6.0 0.00 0.00 0.00 67 1022.4
20260507120603 60 77 2.0 6.0 0.00 0.00 0.00 66 1022.4
20260507120104 61 77 2.0 6.0 0.00 0.00 0.00 66 1022.4
20260507115604 61 77 2.0 6.0 0.00 0.00 0.00 65 1022.3
20260507115104 61 77 2.0 6.0 0.00 0.00 0.00 64 1022.3
20260507114604 61 77 2.0 6.0 0.00 0.00 0.00 64 1022.3
20260507114104 61 77 2.0 6.0 0.00 0.00 0.00 63 1022.2
20260507113603 60 77 2.0 6.0 0.00 0.00 0.00 64 1022.2
20260507113104 60 77 2.0 6.0 0.00 0.00 0.00 66 1022.2
20260507112604 60 77 2.0 6.0 0.00 0.00 0.00 67 1022.2
20260507112104 59 77 2.0 6.0 0.00 0.00 0.00 69 1022.2
20260507111603 60 77 2.0 6.0 0.00 0.00 0.00 68 1022.2
20260507111104 61 77 2.0 6.0 0.00 0.00 0.00 66 1022.2
20260507110604 61 77 2.0 6.0 0.00 0.00 0.00 64 1022.0
20260507110103 61 77 2.0 6.0 0.00 0.00 0.00 64 1021.9
20260507105604 61 77 2.0 6.0 0.00 0.00 0.00 64 1021.9
20260507105104 61 77 2.0 6.0 0.00 0.00 0.00 64 1021.9
20260507104604 61 77 2.0 6.0 0.00 0.00 0.00 64 1021.9
20260507104104 61 77 2.0 6.0 0.00 0.00 0.00 64 1021.9
20260507103604 61 77 2.0 6.0 0.00 0.00 0.00 63 1021.9
20260507103104 61 77 2.0 6.0 0.00 0.00 0.00 64 1021.9
20260507102604 61 77 2.0 6.0 0.00 0.00 0.00 64 1021.8
20260507102104 61 77 2.0 6.0 0.00 0.00 0.00 64 1021.8
20260507101604 61 77 2.0 6.0 0.00 0.00 0.00 65 1021.8
20260507101104 60 77 2.0 6.0 0.00 0.00 0.00 66 1021.8
20260507100103 61 77 2.0 6.0 0.00 0.00 0.00 66 1021.9
20260507095604 62 77 2.0 6.0 0.00 0.00 0.00 65 1021.8
20260507095103 63 77 2.0 6.0 0.00 0.00 0.00 63 1021.8
20260507094604 63 77 2.0 6.0 0.00 0.00 0.00 60 1021.8
20260507094104 63 77 2.0 6.0 0.00 0.00 0.00 60 1021.7
20260507093604 63 77 2.0 6.0 0.00 0.00 0.00 61 1021.7
20260507093104 63 77 2.0 6.0 0.00 0.00 0.00 62 1021.8
20260507092604 64 77 2.0 6.0 0.00 0.00 0.00 60 1021.8
20260507092104 64 77 2.0 6.0 0.00 0.00 0.00 58 1021.7
20260507091604 64 77 2.0 6.0 0.00 0.00 0.00 59 1021.7
20260507091104 64 77 2.0 6.0 0.00 0.00 0.00 59 1021.7
20260507090604 64 77 2.0 6.0 0.00 0.00 0.00 58 1021.6
20260507090105 64 77 2.0 6.0 0.00 0.00 0.00 57 1021.7
20260507085604 65 77 2.0 6.0 0.00 0.00 0.00 58 1021.7
20260507085104 65 77 2.0 6.0 0.00 0.00 0.00 58 1021.7
20260507084604 65 77 2.0 6.0 0.00 0.00 0.00 57 1021.7
20260507084104 65 77 2.0 6.0 0.00 0.00 0.00 57 1021.7
20260507083603 65 77 2.0 6.0 0.00 0.00 0.00 57 1021.7
20260507083103 65 77 2.0 6.0 0.00 0.00 0.00 57 1021.7
20260507082103 64 77 2.0 6.0 0.00 0.00 0.00 58 1021.8
20260507081603 64 77 2.0 6.0 0.00 0.00 0.00 59 1021.9
20260507081104 65 77 2.0 6.0 0.00 0.00 0.00 60 1022.0
20260507080604 65 77 2.0 6.0 0.00 0.00 0.00 59 1022.0
20260507080104 65 77 2.0 6.0 0.00 0.00 0.00 56 1022.0
20260507075603 65 77 2.0 6.0 0.00 0.00 0.00 58 1022.1
20260507075104 65 77 2.0 6.0 0.00 0.00 0.00 59 1022.2
20260507074104 66 77 2.0 6.0 0.00 0.00 0.00 58 1022.2
20260507073604 66 77 2.0 6.0 0.00 0.00 0.00 58 1022.3
20260507073103 66 77 2.0 6.0 0.00 0.00 0.00 57 1022.2
20260507072604 65 77 2.0 6.0 0.00 0.00 0.00 58 1022.3
20260507072104 65 77 2.0 6.0 0.00 0.00 0.00 59 1022.4
20260507071104 67 77 2.0 6.0 0.00 0.00 0.00 54 1022.4
20260507070104 67 77 2.0 6.0 0.00 0.00 0.00 53 1022.4
20260507065604 67 77 2.0 6.0 0.00 0.00 0.00 52 1022.5
20260507065104 68 77 2.0 6.0 0.00 0.00 0.00 52 1022.6
20260507064604 68 77 2.0 6.0 0.00 0.00 0.00 52 1022.6
20260507063604 69 77 2.0 6.0 0.00 0.00 0.00 52 1022.6
20260507063104 69 77 2.0 6.0 0.00 0.00 0.00 51 1022.6
20260507062604 69 77 2.0 6.0 0.00 0.00 0.00 51 1022.7
20260507062103 69 77 2.0 6.0 0.00 0.00 0.00 50 1022.6
20260507061604 69 77 2.0 6.0 0.00 0.00 0.00 51 1022.6
20260507061104 70 77 2.0 6.0 0.00 0.00 0.00 52 1022.6
20260507060104 71 77 2.0 6.0 0.00 0.00 0.00 49 1022.7
20260507055603 71 77 2.0 6.0 0.00 0.00 0.00 48 1022.7
20260507055104 71 77 2.0 6.0 0.00 0.00 0.00 49 1022.7
20260507054604 71 77 2.0 6.0 0.00 0.00 0.00 49 1022.7
20260507054104 71 77 2.0 6.0 0.00 0.00 0.00 49 1022.8
20260507053604 72 77 2.0 6.0 0.00 0.00 0.00 49 1022.7
20260507053104 72 77 2.0 6.0 0.00 0.00 0.00 48 1022.7
20260507052104 73 77 2.0 6.0 0.00 0.00 0.00 47 1022.5
20260507051603 73 77 2.0 6.0 0.00 0.00 0.00 48 1022.7
20260507051104 72 77 2.0 6.0 0.00 0.00 0.00 48 1022.7
20260507050604 72 77 2.0 6.0 0.00 0.00 0.00 49 1022.7
20260507050104 73 77 2.0 6.0 0.00 0.00 0.00 49 1022.7
20260507045104 74 77 2.0 6.0 0.00 0.00 0.00 45 1022.6
20260507044604 75 77 2.0 6.0 0.00 0.00 0.00 45 1022.7
20260507044104 75 77 2.0 6.0 0.00 0.00 0.00 43 1022.7
20260507043603 75 77 2.0 6.0 0.00 0.00 0.00 43 1022.6
20260507043102 74 77 2.0 6.0 0.00 0.00 0.00 43 1022.5
20260507042103 74 77 2.0 6.0 0.00 0.00 0.00 44 1022.5
20260507041603 74 77 2.0 6.0 0.00 0.00 0.00 45 1022.5
20260507040603 73 77 2.0 6.0 0.00 0.00 0.00 46 1022.5
20260507035603 74 77 2.0 6.0 0.00 0.00 0.00 47 1022.4
20260507035103 75 77 2.0 6.0 0.00 0.00 0.00 45 1022.3
20260507034603 75 77 2.0 6.0 0.00 0.00 0.00 44 1022.4
20260507034103 75 77 2.0 6.0 0.00 0.00 0.00 44 1022.4
20260507033603 75 77 2.0 6.0 0.00 0.00 0.00 45 1022.4
20260507033102 75 77 2.0 6.0 0.00 0.00 0.00 45 1022.3
20260507032102 76 77 2.0 6.0 0.00 0.00 0.00 43 1022.2
20260507031603 76 77 2.0 6.0 0.00 0.00 0.00 43 1022.1
20260507031103 76 77 2.0 6.0 0.00 0.00 0.00 43 1022.1
20260507030603 76 77 2.0 6.0 0.00 0.00 0.00 43 1022.0
20260507025602 76 77 2.0 6.0 0.00 0.00 0.00 42 1021.9
20260507025103 76 77 2.0 6.0 0.00 0.00 0.00 41 1021.9
20260507024103 76 77 2.0 6.0 0.00 0.00 0.00 42 1021.8
20260507023103 76 77 2.0 6.0 0.00 0.00 0.00 42 1021.7
20260507022603 76 77 2.0 6.0 0.00 0.00 0.00 43 1021.6
20260507021103 79 77 2.0 6.0 0.00 0.00 0.00 40 1021.3
20260507020602 80 77 2.0 6.0 0.00 0.00 0.00 37 1021.2
20260507015602 80 77 2.0 6.0 0.00 0.00 0.00 36 1021.2
20260507015104 80 77 2.0 6.0 0.00 0.00 0.00 36 1021.1
20260507014103 81 77 2.0 6.0 0.00 0.00 0.00 36 1020.9
20260507013602 81 77 2.0 6.0 0.00 0.00 0.00 36 1020.9
20260507012603 81 77 2.0 6.0 0.00 0.00 0.00 35 1020.7
20260507012103 82 77 2.0 6.0 0.00 0.00 0.00 35 1020.6
20260507011103 82 77 2.0 6.0 0.00 0.00 0.00 35 1020.5
20260507010603 82 77 2.0 6.0 0.00 0.00 0.00 35 1020.4
20260507005603 83 77 2.0 6.0 0.00 0.00 0.00 34 1020.3
20260507005103 83 77 2.0 6.0 0.00 0.00 0.00 34 1020.3
20260507004602 83 77 2.0 6.0 0.00 0.00 0.00 34 1020.3
20260507004103 84 77 2.0 6.0 0.00 0.00 0.00 34 1020.3
20260507003603 84 77 2.0 6.0 0.00 0.00 0.00 34 1020.2
20260507003103 84 77 2.0 6.0 0.00 0.00 0.00 33 1020.2
20260507002603 84 77 2.0 6.0 0.00 0.00 0.00 33 1020.1
20260507002103 84 77 2.0 6.0 0.00 0.00 0.00 33 1020.0
20260507001603 84 77 2.0 6.0 0.00 0.00 0.00 33 1019.9
20260507001102 85 77 2.0 6.0 0.00 0.00 0.00 33 1019.9
20260507000602 85 77 2.0 6.0 0.00 0.00 0.00 33 1019.9
20260506235102 85 77 2.0 6.0 0.00 0.00 0.00 32 1019.8
20260506234603 85 77 2.0 6.0 0.00 0.00 0.00 32 1019.9
20260506233103 86 77 2.0 6.0 0.00 0.00 0.00 32 1019.8
20260506232602 86 77 2.0 6.0 0.00 0.00 0.00 32 1019.8
20260506232103 85 77 2.0 6.0 0.00 0.00 0.00 32 1019.8
20260506231603 86 77 2.0 6.0 0.00 0.00 0.00 32 1019.7
20260506231103 86 77 2.0 6.0 0.00 0.00 0.00 32 1019.6
20260506230603 86 77 2.0 6.0 0.00 0.00 0.00 32 1019.7
20260506230103 86 77 2.0 6.0 0.00 0.00 0.00 32 1019.6
20260506225603 86 77 2.0 6.0 0.00 0.00 0.00 32 1019.5
20260506225103 86 77 2.0 6.0 0.00 0.00 0.00 31 1019.3
20260506224604 86 77 2.0 6.0 0.00 0.00 0.00 32 1019.3
20260506224103 86 77 2.0 6.0 0.00 0.00 0.00 31 1019.3
20260506223103 86 77 2.0 6.0 0.00 0.00 0.00 31 1019.4
20260506222603 86 77 2.0 6.0 0.00 0.00 0.00 31 1019.4
20260506221603 87 77 2.0 6.0 0.00 0.00 0.00 31 1019.5
20260506221103 87 77 2.0 6.0 0.00 0.00 0.00 31 1019.5
20260506220603 87 77 2.0 6.0 0.00 0.00 0.00 31 1019.5
20260506215603 87 77 2.0 6.0 0.00 0.00 0.00 31 1019.6
20260506215103 86 77 2.0 6.0 0.00 0.00 0.00 31 1019.6
20260506214603 86 77 2.0 6.0 0.00 0.00 0.00 31 1019.6
20260506214103 86 77 2.0 6.0 0.00 0.00 0.00 32 1019.7
20260506213603 86 77 2.0 6.0 0.00 0.00 0.00 32 1019.7
20260506213103 86 77 2.0 6.0 0.00 0.00 0.00 31 1019.8
20260506212603 86 77 2.0 6.0 0.00 0.00 0.00 31 1019.8
20260506212102 86 77 2.0 6.0 0.00 0.00 0.00 32 1019.9
20260506211102 85 77 2.0 6.0 0.00 0.00 0.00 32 1020.0
20260506210602 85 77 2.0 6.0 0.00 0.00 0.00 32 1020.0
20260506210103 85 77 2.0 6.0 0.00 0.00 0.00 32 1020.0
20260506205603 86 77 2.0 6.0 0.00 0.00 0.00 33 1020.1
20260506205103 86 77 2.0 6.0 0.00 0.00 0.00 32 1020.2
20260506204103 86 77 2.0 6.0 0.00 0.00 0.00 33 1020.3
20260506203602 86 77 2.0 6.0 0.00 0.00 0.00 32 1020.4
20260506203103 85 77 2.0 6.0 0.00 0.00 0.00 32 1020.4
20260506202603 85 77 2.0 6.0 0.00 0.00 0.00 33 1020.4
20260506202102 85 77 2.0 6.0 0.00 0.00 0.00 33 1020.5
20260506201103 85 77 2.0 6.0 0.00 0.00 0.00 33 1020.7
20260506200603 85 77 2.0 6.0 0.00 0.00 0.00 33 1020.8
20260506195603 84 77 2.0 6.0 0.00 0.00 0.00 33 1020.9
20260506195103 85 77 2.0 6.0 0.00 0.00 0.00 33 1020.9
20260506194603 84 77 2.0 6.0 0.00 0.00 0.00 34 1021.1
20260506194103 84 77 2.0 6.0 0.00 0.00 0.00 34 1021.1
20260506193603 84 77 2.0 6.0 0.00 0.00 0.00 33 1021.2
20260506193103 83 77 2.0 6.0 0.00 0.00 0.00 34 1021.3
20260506192602 84 77 2.0 6.0 0.00 0.00 0.00 34 1021.4
20260506192103 84 77 2.0 6.0 0.00 0.00 0.00 33 1021.4
20260506191603 84 77 2.0 6.0 0.00 0.00 0.00 34 1021.4
20260506191103 84 77 2.0 6.0 0.00 0.00 0.00 34 1021.4
20260506190603 84 77 2.0 6.0 0.00 0.00 0.00 34 1021.6
20260506185603 83 77 2.0 6.0 0.00 0.00 0.00 34 1021.7
20260506185102 82 77 2.0 6.0 0.00 0.00 0.00 35 1021.8
20260506184603 83 77 2.0 6.0 0.00 0.00 0.00 34 1021.8
20260506183603 82 77 2.0 6.0 0.00 0.00 0.00 35 1021.9
20260506183103 82 77 2.0 6.0 0.00 0.00 0.00 35 1022.0
20260506182603 82 77 2.0 6.0 0.00 0.00 0.00 35 1022.0
20260506182103 82 77 2.0 6.0 0.00 0.00 0.00 35 1022.1
20260506181603 82 77 2.0 6.0 0.00 0.00 0.00 35 1022.1
20260506181104 82 77 2.0 6.0 0.00 0.00 0.00 35 1022.2
20260506180603 81 77 2.0 6.0 0.00 0.00 0.00 35 1022.2
20260506180103 81 77 2.0 6.0 0.00 0.00 0.00 35 1022.2
20260506175103 81 77 2.0 6.0 0.00 0.00 0.00 37 1022.3
20260506174103 81 77 2.0 6.0 0.00 0.00 0.00 37 1022.3
20260506173103 81 77 2.0 6.0 0.00 0.00 0.00 36 1022.3
20260506172603 80 77 2.0 6.0 0.00 0.00 0.00 37 1022.4
20260506172103 80 77 2.0 6.0 0.00 0.00 0.00 36 1022.5
20260506171603 80 77 2.0 6.0 0.00 0.00 0.00 37 1022.5
20260506171103 80 77 2.0 6.0 0.00 0.00 0.00 36 1022.5
20260506170603 80 77 2.0 6.0 0.00 0.00 0.00 36 1022.5
20260506170103 80 77 2.0 6.0 0.00 0.00 0.00 37 1022.5
20260506165602 80 77 2.0 6.0 0.00 0.00 0.00 37 1022.6
20260506164103 79 77 2.0 6.0 0.00 0.00 0.00 38 1022.7
20260506163603 79 77 2.0 6.0 0.00 0.00 0.00 37 1022.8
20260506163103 79 77 2.0 6.0 0.00 0.00 0.00 37 1022.7
20260506162603 78 77 2.0 6.0 0.00 0.00 0.00 40 1022.8
20260506162103 78 77 2.0 6.0 0.00 0.00 0.00 39 1022.8
20260506161603 78 77 2.0 6.0 0.00 0.00 0.00 40 1022.8
20260506161103 77 77 2.0 6.0 0.00 0.00 0.00 41 1022.9
20260506160103 77 77 2.0 6.0 0.00 0.00 0.00 42 1022.9
20260506155603 77 77 2.0 6.0 0.00 0.00 0.00 41 1022.8
20260506155102 76 77 2.0 6.0 0.00 0.00 0.00 42 1022.9
20260506154603 76 77 2.0 6.0 0.00 0.00 0.00 43 1022.8
20260506154103 76 77 2.0 6.0 0.00 0.00 0.00 44 1022.9
20260506153603 76 77 2.0 6.0 0.00 0.00 0.00 46 1022.8
20260506153103 75 77 2.0 6.0 0.00 0.00 0.00 46 1022.8
20260506152103 74 77 2.0 6.0 0.00 0.00 0.00 48 1022.9
20260506151603 74 77 2.0 6.0 0.00 0.00 0.00 49 1022.8
20260506151103 73 77 2.0 6.0 0.00 0.00 0.00 49 1022.8
20260506150602 72 77 2.0 6.0 0.00 0.00 0.00 51 1022.8
20260506145603 70 77 2.0 6.0 0.00 0.00 0.00 53 1022.8
20260506145103 69 77 2.0 6.0 0.00 0.00 0.00 54 1022.8
20260506144603 69 77 2.0 6.0 0.00 0.00 0.00 54 1022.8
20260506144103 68 77 2.0 6.0 0.00 0.00 0.00 56 1022.8
20260506143103 67 77 2.0 6.0 0.00 0.00 0.00 57 1022.8
20260506142603 67 77 2.0 6.0 0.00 0.00 0.00 57 1022.9
20260506142104 66 77 2.0 6.0 0.00 0.00 0.00 58 1022.9
20260506141103 65 77 2.0 6.0 0.00 0.00 0.00 59 1022.9
20260506140603 65 77 2.0 6.0 0.00 0.00 0.00 60 1022.9
20260506135603 64 77 2.0 6.0 0.00 0.00 0.00 62 1022.9
20260506135104 63 77 2.0 6.0 0.00 0.00 0.00 64 1022.9
20260506134603 63 77 2.0 6.0 0.00 0.00 0.00 63 1022.8
20260506134103 62 77 2.0 6.0 0.00 0.00 0.00 64 1022.8
20260506133103 61 77 2.0 6.0 0.00 0.00 0.00 67 1022.8
20260506132604 61 77 2.0 6.0 0.00 0.00 0.00 66 1022.8
20260506131603 61 77 2.0 6.0 0.00 0.00 0.00 66 1022.8